Theta_e
312 313 313 313 313 313 313 313 314 313 311 308 308 309 311 311 311 313 314 317 317 313 314 314 316 317 320 325 328 327 325 329 330 328 327 326 325 321 320 323 321 323 323 322 325
311 312 312 312 312 312 312 313 313 313 314 313 309 308 310 310 319 315 315 314 313 314 316 316 317 318 321 323 327 328 328 329 326 324 325 327 327 325 324 323 323 324 323 324 325
311 311 312 312 312 312 312 312 314 314 315 313 310 308 310 312 319 316 315 313 313 314 314 314 315 318 320 320 321 325 328 324 324 322 322 324 326 325 326 327 325 325 325 326 326
311 311 311 311 311 311 310 312 313 314 314 313 311 308 310 316 315 314 314 313 314 314 314 314 316 318 320 319 316 319 319 319 322 317 318 319 320 323 323 318 315 321 323 325 327
310 310 311 311 311 309 312 312 314 316 315 313 310 310 313 316 315 313 313 314 314 314 314 315 315 316 317 316 315 317 316 315 315 314 315 315 318 320 316 314 314 318 322 324 326
310 310 310 310 307 310 311 313 314 315 315 313 309 310 315 315 312 313 313 313 314 315 315 315 314 314 314 314 315 314 315 315 315 315 315 317 316 317 316 314 314 314 317 321 324
309 310 310 308 309 310 312 313 312 312 313 310 310 312 314 314 312 311 313 313 313 314 315 314 314 313 313 312 314 315 316 315 316 316 316 317 318 316 314 315 316 315 315 314 314
309 310 307 306 310 310 314 311 311 311 310 311 312 314 315 312 312 312 312 313 313 313 314 313 313 314 313 315 315 316 317 318 314 316 315 316 319 316 314 316 316 316 315 315 314
309 308 305 309 310 313 313 312 312 314 314 314 317 316 315 313 314 314 311 313 313 313 313 312 315 316 315 317 318 317 318 315 314 314 315 318 318 316 315 316 316 315 315 315 315
309 306 306 310 310 315 315 316 316 316 316 315 315 315 315 316 314 312 311 312 314 313 314 315 316 317 315 316 316 317 316 315 315 314 316 318 317 316 316 316 315 315 314 314 314
306 306 307 310 311 316 316 315 319 318 317 318 317 316 316 314 312 312 311 313 313 314 314 314 316 315 315 315 315 315 315 315 314 313 317 318 318 317 316 315 315 314 313 312 312
305 305 307 310 310 313 314 317 313 314 317 316 316 315 314 313 314 313 312 314 314 314 314 315 316 314 313 313 314 315 315 315 313 313 316 317 318 316 315 314 312 312 311 310 310
306 306 307 309 309 311 312 311 312 315 318 315 315 315 314 313 314 314 313 313 314 314 314 315 314 311 313 313 315 314 315 314 315 314 315 317 317 317 315 314 312 310 310 309 309
306 305 306 307 308 307 312 312 314 315 317 316 315 314 314 315 314 311 311 313 313 314 313 315 312 313 314 314 314 317 312 313 315 315 318 315 319 317 316 314 312 309 308 308 307
306 305 306 306 308 311 308 313 315 316 319 315 315 312 313 315 314 314 311 313 314 313 313 313 314 314 315 314 313 316 314 315 315 316 315 315 316 318 313 315 311 308 306 306 306
306 305 305 305 307 306 309 314 314 314 316 317 315 316 315 313 313 313 316 315 311 314 313 314 311 313 314 312 312 313 314 315 315 316 318 316 316 317 316 315 310 307 305 304 304
305 305 305 305 306 306 314 316 315 315 315 317 317 316 315 315 315 313 317 318 319 316 317 314 314 312 311 314 313 314 316 319 320 320 321 314 315 317 315 311 308 306 304 303 303
305 306 304 303 306 308 314 312 313 318 317 314 316 314 316 315 315 316 317 319 316 317 315 316 317 313 311 313 314 315 316 317 317 317 319 313 318 318 312 308 305 304 304 303 303
306 306 304 304 309 310 312 314 318 318 313 315 316 315 317 316 316 317 317 318 316 315 318 317 316 311 310 311 312 314 316 313 316 313 315 317 316 314 310 307 306 305 304 303 303
307 307 304 306 309 309 316 316 314 311 312 314 316 317 317 317 317 317 317 313 313 313 314 316 316 312 312 310 311 313 312 316 316 317 316 316 317 320 313 309 306 305 304 303 302
306 309 304 307 308 314 316 315 312 308 310 315 316 317 315 314 317 317 316 310 308 312 312 314 314 314 312 313 314 314 314 313 314 315 316 316 317 311 315 310 308 305 303 302 302
304 310 304 306 313 311 315 311 305 307 306 309 310 311 313 310 316 318 314 310 305 310 313 312 315 316 315 311 310 311 314 314 316 315 314 315 315 307 310 310 307 304 302 301 301
306 306 304 305 313 311 306 305 304 307 303 306 306 306 307 309 313 315 312 305 304 309 310 310 313 313 312 313 312 313 310 310 311 313 316 316 314 305 307 306 305 304 302 301 301
305 308 308 304 302 309 308 306 306 302 302 302 303 303 306 306 306 310 309 304 303 304 305 308 313 314 311 313 311 313 311 308 309 312 313 314 314 307 307 305 304 302 301 301 301
303 303 300 309 305 305 305 305 305 305 302 302 302 302 304 306 305 305 302 300 302 300 301 304 310 307 308 307 305 306 307 306 307 307 308 309 310 307 305 304 302 300 300 300 301
305 304 300 301 300 304 303 304 304 301 302 301 302 300 301 302 301 301 300 300 301 300 300 299 303 301 301 301 301 302 302 302 302 303 304 305 306 301 301 301 300 300 300 300 300
297 297 304 299 301 303 302 302 302 301 300 300 300 301 300 300 299 299 299 299 299 299 299 300 301 300 299 300 301 301 301 302 301 300 301 305 302 300 300 300 300 300 299 300 299
Wind_Speed
18 18 18 18 18 18 19 18 17 15 12 9 8 8 9 11 6 2 4 3 1 6 4 1 3 2 3 3 3 1 2 6 5 4 5 6 2 3 1 2 2 2 4 4 14
18 18 19 19 19 18 18 18 15 13 12 10 8 6 8 10 4 7 2 3 5 6 3 2 2 1 3 2 2 2 3 4 3 4 4 4 6 3 2 3 3 1 5 7 14
19 19 19 18 18 18 18 16 13 11 11 8 6 5 6 4 3 4 4 4 5 4 4 2 2 2 3 2 4 2 4 2 4 3 3 4 3 3 4 6 10 11 3 9 15
17 18 19 19 19 18 16 13 13 11 8 7 4 1 2 0 2 2 3 3 3 4 2 3 1 2 2 2 2 2 2 2 2 3 4 4 4 6 10 8 12 11 6 8 11
18 19 20 20 20 17 14 15 14 11 7 6 2 1 2 4 4 2 3 3 5 4 7 3 5 1 2 2 0 1 2 2 4 7 4 2 6 4 12 17 12 7 4 5 8
20 21 22 22 18 13 15 13 10 7 3 5 5 5 2 6 1 4 4 4 5 4 5 5 4 2 4 2 1 2 3 3 2 4 4 5 8 1 14 16 12 9 8 7 5
22 22 22 20 12 14 12 8 7 4 4 7 8 5 5 6 3 5 4 5 6 4 5 4 3 2 2 4 1 1 4 4 9 4 4 7 11 11 13 11 12 12 11 9 8
22 21 19 12 13 15 7 7 9 10 10 9 8 2 5 2 4 6 3 4 5 5 6 3 4 5 1 2 3 2 3 4 7 7 3 5 5 11 12 11 14 15 13 12 10
22 19 14 10 15 7 6 8 12 12 10 7 3 1 7 3 2 5 4 3 4 4 5 3 2 2 2 3 4 1 3 2 4 7 2 3 5 11 12 11 14 14 14 14 12
20 17 12 10 12 5 6 6 6 6 5 5 3 5 2 2 3 3 2 3 2 3 2 1 1 3 2 3 0 2 2 1 2 7 9 13 10 10 12 13 14 14 14 14 14
18 16 11 8 13 6 5 1 3 4 10 5 3 3 2 4 2 4 3 2 1 1 2 1 4 3 4 3 4 4 1 0 3 4 6 10 10 10 12 14 15 15 15 16 16
16 15 10 5 15 4 5 4 3 1 9 4 2 2 1 3 2 5 3 2 1 2 1 4 2 4 3 4 4 3 2 3 5 2 3 8 10 10 12 12 13 15 16 17 17
15 13 9 2 4 13 11 5 2 2 3 4 3 4 3 4 3 5 4 1 1 1 1 2 5 1 3 4 4 2 3 4 1 5 4 9 6 5 8 11 12 14 15 17 18
12 13 12 3 3 3 4 4 2 2 3 4 3 4 1 2 3 4 6 2 1 1 1 2 2 2 4 3 3 2 1 2 5 4 2 7 2 5 7 10 13 14 15 16 18
8 13 7 7 4 3 4 2 2 2 3 3 2 3 3 3 2 4 6 2 1 1 3 4 1 2 2 1 2 3 2 2 2 5 4 8 5 8 4 7 10 12 14 15 16
5 9 8 4 7 4 4 2 2 4 2 2 3 5 1 5 3 5 5 7 1 1 0 1 1 2 2 3 2 8 3 2 2 3 5 4 8 7 4 5 7 9 12 13 14
2 7 12 6 2 3 4 2 3 3 0 2 2 4 3 4 4 6 5 10 5 2 2 1 2 1 1 3 4 4 4 3 4 4 2 2 6 8 7 7 8 9 10 11 12
3 1 8 14 5 1 3 3 3 3 4 3 4 1 1 5 4 4 3 3 9 4 2 2 4 2 4 3 2 1 3 4 4 2 3 4 4 5 8 8 9 8 9 10 11
5 4 5 13 4 2 4 1 2 2 1 1 1 1 2 1 4 2 6 4 6 9 4 4 2 2 4 3 3 3 3 3 3 0 4 5 4 5 9 9 9 8 8 10 10
5 1 5 8 4 3 1 5 3 3 2 2 1 2 2 3 1 2 2 4 5 5 3 3 3 2 1 1 5 3 2 3 3 3 4 4 4 2 14 13 10 8 7 8 8
3 2 8 3 4 3 3 4 4 4 2 4 2 2 3 2 3 2 3 3 4 4 3 4 2 3 2 5 5 0 2 0 3 3 4 5 3 5 13 13 12 9 7 6 7
2 1 11 1 1 3 3 3 1 2 5 3 3 4 2 2 3 2 2 5 10 4 2 4 3 4 2 4 1 2 2 3 4 1 1 3 1 2 3 10 10 9 6 6 7
2 2 6 2 2 4 4 5 4 2 5 3 2 3 2 2 1 2 3 3 8 5 4 4 1 3 3 4 3 3 4 3 2 2 8 6 2 2 7 9 8 8 6 5 5
1 1 4 4 3 6 7 4 4 4 4 4 3 1 2 3 4 4 2 3 5 7 5 2 2 5 5 4 4 2 2 4 4 5 8 8 5 6 8 9 9 7 4 4 5
4 3 1 3 5 7 3 3 6 3 3 3 3 4 1 3 2 3 2 1 4 10 3 2 2 3 5 5 4 7 9 7 8 9 7 7 6 3 7 7 7 5 4 4 6
2 3 3 4 2 4 3 2 4 5 1 2 4 4 2 3 3 3 1 2 2 4 3 3 1 2 3 1 4 8 7 7 6 6 10 8 7 2 4 6 6 4 3 4 5
3 3 0 1 2 2 2 4 5 7 4 4 6 5 5 5 3 3 3 0 1 3 2 2 1 1 2 4 7 8 3 3 3 1 3 4 5 3 4 4 2 4 1 2 4
Wind_Direction
342 338 335 334 332 331 329 326 327 335 340 333 327 325 330 334 345 84 94 70 38 5 12 148 44 81 77 75 41 286 149 113 93 97 71 43 112 95 93 127 104 54 17 71 143
339 336 335 334 330 326 324 328 335 335 333 332 330 329 334 344 68 82 37 63 38 21 10 66 61 72 91 63 44 346 129 90 47 53 52 44 48 70 199 131 112 148 100 121 154
339 336 332 329 326 325 325 324 325 325 325 327 324 332 337 356 199 56 60 62 30 28 60 70 63 44 86 34 26 32 97 80 91 20 358 30 62 16 350 74 25 345 31 162 171
335 333 330 328 325 322 325 332 326 317 308 303 316 329 352 96 156 25 80 49 37 31 66 47 55 84 98 96 40 169 66 353 52 41 338 2 338 72 58 5 329 316 330 185 193
336 333 330 329 327 330 340 334 326 315 283 255 244 154 147 140 83 44 69 53 53 66 55 61 60 100 123 99 165 188 72 316 321 309 299 310 39 30 29 353 333 328 301 246 222
339 337 334 332 334 342 340 337 339 328 269 202 159 138 222 113 55 63 75 79 72 75 60 51 68 61 102 91 328 34 313 349 8 20 59 99 49 115 360 350 6 8 1 341 285
340 339 337 337 347 346 349 7 7 36 93 137 138 124 90 82 86 58 82 83 67 68 86 62 86 247 151 145 42 238 160 130 43 36 77 128 52 29 355 355 21 22 16 12 352
341 341 346 359 355 347 23 44 58 77 100 119 120 91 79 40 98 48 84 90 86 84 90 80 75 93 348 122 170 182 200 184 48 18 112 229 88 23 7 12 25 24 21 17 21
342 349 359 7 352 11 67 79 82 85 89 94 66 305 110 77 72 18 55 116 113 82 74 77 74 54 187 214 169 163 147 96 132 26 305 345 112 27 20 30 32 24 23 19 15
348 359 3 16 5 81 105 99 79 73 51 60 57 149 91 48 335 2 61 91 114 143 182 141 154 173 162 244 107 127 160 100 357 30 81 87 84 48 34 35 34 28 23 21 17
0 5 13 26 27 102 120 163 197 123 42 45 44 60 48 349 32 60 25 146 139 166 199 38 226 139 91 63 75 106 104 322 86 81 80 93 81 48 36 37 33 29 26 21 17
7 6 11 28 36 107 77 67 44 18 88 44 48 72 29 339 121 57 359 231 227 144 244 208 144 111 98 148 157 174 195 151 120 96 151 133 95 70 49 45 37 29 28 23 18
9 10 8 61 69 56 79 77 91 104 98 53 27 26 2 343 61 32 351 77 55 145 13 324 93 104 240 178 199 199 256 178 154 128 108 157 134 115 70 58 49 43 35 32 27
14 13 20 107 84 83 61 14 113 164 149 32 27 49 346 336 78 359 7 331 145 42 170 84 99 182 165 195 238 230 157 161 156 211 241 215 148 156 99 64 45 38 36 34 30
19 20 28 67 104 51 353 345 154 251 220 23 37 335 2 41 16 52 29 282 43 100 253 90 139 169 218 38 222 73 156 169 212 238 246 189 251 116 193 77 51 42 37 35 35
23 30 31 49 66 68 4 127 251 216 151 126 348 355 168 35 58 330 27 42 31 251 347 49 328 294 32 77 34 138 145 118 154 209 235 145 232 149 155 110 89 64 50 44 40
148 38 36 52 357 325 118 193 226 269 191 81 22 4 82 32 60 25 51 49 20 289 51 63 79 68 333 195 132 205 224 215 206 200 16 128 209 60 119 107 101 85 63 53 49
178 63 28 11 359 91 175 201 255 39 24 2 342 337 74 1 59 49 108 80 47 2 352 309 175 357 2 354 344 255 294 302 291 274 95 141 218 121 125 117 112 97 84 69 57
116 103 45 353 27 345 255 163 102 140 154 355 186 233 112 49 343 91 53 53 24 11 356 332 144 11 34 339 316 127 239 6 299 332 260 122 120 147 158 146 137 112 89 69 60
124 108 31 2 16 308 307 81 77 29 343 221 186 321 154 27 183 78 57 12 357 12 333 39 280 63 21 244 73 326 76 242 194 269 261 175 217 116 181 170 153 137 100 80 65
102 156 355 37 52 53 69 82 116 48 323 5 103 110 70 56 29 59 44 59 356 332 351 341 275 116 230 24 11 322 212 17 301 293 291 294 125 352 179 174 167 141 109 77 58
110 145 350 63 74 50 87 91 43 34 36 79 91 75 74 48 67 105 112 33 352 310 28 18 316 276 357 356 340 330 38 354 276 175 289 308 292 81 199 167 158 138 113 79 55
66 60 357 358 154 109 117 93 61 44 30 33 76 19 84 97 163 133 121 70 13 23 21 1 191 273 185 165 159 63 53 59 24 282 257 277 69 101 138 152 153 147 119 81 57
120 145 55 58 27 114 132 116 117 52 72 48 61 93 140 114 44 125 97 39 6 20 8 237 279 278 300 21 342 269 316 331 299 264 289 261 303 173 172 166 158 143 111 74 54
10 82 21 75 45 96 91 107 129 119 79 42 94 62 115 143 130 106 84 43 60 359 41 40 265 303 294 299 291 277 286 286 267 280 267 341 328 178 174 163 143 121 87 57 37
96 145 95 91 63 103 21 86 130 120 5 75 115 71 66 100 44 139 34 48 34 359 22 358 174 331 280 348 303 279 278 270 260 264 265 280 261 110 146 143 158 123 58 34 26
107 100 127 38 116 182 103 132 146 141 61 69 129 129 101 76 13 335 278 300 356 319 342 357 281 227 230 316 303 247 213 185 122 68 291 275 62 158 138 172 222 227 325 3 5